DW9249 Weather Reports


time (UTC)temp
C
wind
direction
speed
KPH
gust
KPH
rain 1hr
cm
rain 24hr
cm
rain mn
cm
humidity
%
barometer
mb
20260505194755 28 188 8.0 19.3 0.00 0.00 0.00 31 998.8
20260505194259 28 288 8.0 19.3 0.00 0.00 0.00 31 998.8
20260505193746 28 197 8.0 19.3 0.00 0.00 0.00 31 998.8
20260505193231 28 234 6.4 30.6 0.00 0.00 0.00 32 999.0
20260505192739 28 259 8.0 30.6 0.00 0.00 0.00 34 999.0
20260505192231 28 215 9.7 30.6 0.00 0.00 0.00 32 999.1
20260505191712 28 217 9.7 30.6 0.00 0.00 0.00 31 999.1
20260505191156 28 207 8.0 29.0 0.00 0.00 0.00 33 999.3
20260505190648 28 197 8.0 25.7 0.00 0.00 0.00 34 999.3
20260505190131 28 192 8.0 25.7 0.00 0.00 0.00 33 999.4
20260505185624 28 237 6.4 22.5 0.00 0.00 0.00 36 999.4
20260505185108 28 141 4.8 14.5 0.00 0.00 0.00 34 999.5
20260505184618 28 137 4.8 14.5 0.00 0.00 0.00 35 999.5
20260505184103 28 217 6.4 29.0 0.00 0.00 0.00 37 999.6
20260505183549 28 169 8.0 29.0 0.00 0.00 0.00 35 999.8
20260505183044 28 170 8.0 29.0 0.00 0.00 0.00 33 999.9
20260505182541 28 135 6.4 29.0 0.00 0.00 0.00 34 999.9
20260505182023 28 202 4.8 24.1 0.00 0.00 0.00 35 1000.0
20260505181509 28 160 3.2 24.1 0.00 0.00 0.00 36 999.9
20260505181015 28 132 6.4 24.1 0.00 0.00 0.00 36 999.9
20260505180502 28 202 8.0 24.1 0.00 0.00 0.00 36 1000.0
20260505180004 28 111 6.4 19.3 0.00 0.00 0.00 36 1000.1
20260505174841 27 173 6.4 19.3 0.00 0.00 0.00 39 1000.1
20260505174343 27 190 6.4 17.7 0.00 0.00 0.00 38 1000.1
20260505173841 28 134 4.8 19.3 0.00 0.00 0.00 38 1000.1
20260505173322 28 136 4.8 19.3 0.00 0.00 0.00 39 1000.1
20260505172821 28 200 4.8 19.3 0.00 0.00 0.00 41 1000.3
20260505171712 27 186 3.2 16.1 0.00 0.00 0.00 38 1000.2
20260505171206 27 209 4.8 19.3 0.00 0.00 0.00 39 1000.4
20260505170654 27 174 4.8 19.3 0.00 0.00 0.00 38 1000.6
20260505170146 27 105 4.8 19.3 0.00 0.00 0.00 39 1000.5
20260505165632 27 301 4.8 19.3 0.00 0.00 0.00 40 1000.7
20260505165126 27 164 4.8 16.1 0.00 0.00 0.00 38 1000.8
20260505163335 27 156 4.8 17.7 0.00 0.00 0.00 39 1000.9
20260505162823 27 168 4.8 19.3 0.00 0.00 0.00 41 1001.0
20260505162331 27 126 4.8 19.3 0.00 0.00 0.00 41 1001.1
20260505161829 27 176 3.2 19.3 0.00 0.00 0.00 42 1001.1
20260505161331 26 184 3.2 19.3 0.00 0.00 0.00 42 1001.1
20260505160821 26 178 4.8 14.5 0.00 0.00 0.00 42 1001.2
20260505153208 25 186 3.2 12.9 0.00 0.00 0.00 44 1001.7
20260505152716 25 133 3.2 12.9 0.00 0.00 0.00 44 1001.5
20260505152158 25 201 1.6 11.3 0.00 0.00 0.00 44 1001.6
20260505151654 25 302 0.0 11.3 0.00 0.00 0.00 47 1001.6
20260505151159 25 315 0.0 3.2 0.00 0.00 0.00 47 1001.6
20260505150709 24 224 1.6 12.9 0.00 0.00 0.00 48 1001.7
20260505140329 22 190 4.8 17.7 0.00 0.00 0.00 53 1002.5
20260505124547 19 210 4.8 17.7 0.00 0.00 0.00 61 1002.3
20260505123359 18 183 3.2 14.5 0.00 0.00 0.00 61 1002.0
20260505122840 18 220 4.8 14.5 0.00 0.00 0.00 62 1002.1
20260505122344 18 226 4.8 14.5 0.00 0.00 0.00 63 1002.0
20260505121826 18 192 3.2 11.3 0.00 0.00 0.00 64 1002.2
20260505120100 16 198 0.0 4.8 0.00 0.00 0.00 73 1002.2
20260505115552 15 200 0.0 0.0 0.00 0.00 0.00 82 1002.3
20260505115036 14 213 0.0 4.8 0.00 0.00 0.00 88 1002.2
20260505114546 14 205 0.0 0.0 0.00 0.00 0.00 88 1002.3
20260505114053 14 205 0.0 0.0 0.00 0.00 0.00 87 1002.1
20260505113600 14 205 0.0 0.0 0.00 0.00 0.00 86 1002.2
20260505113104 14 205 0.0 0.0 0.00 0.00 0.00 85 1002.3
20260505111940 14 205 0.0 0.0 0.00 0.00 0.00 82 1002.2
20260505111447 14 205 0.0 0.0 0.00 0.00 0.00 81 1002.2
20260505110957 14 205 0.0 0.0 0.00 0.00 0.00 81 1002.2
20260505102005 13 190 0.0 1.6 0.00 0.00 0.00 76 1002.2
20260505100821 13 190 0.0 4.8 0.00 0.00 0.00 78 1002.1
20260505095644 13 190 0.0 0.0 0.00 0.00 0.00 80 1002.1
20260505095151 12 190 0.0 0.0 0.00 0.00 0.00 81 1002.0
20260505094652 12 190 0.0 4.8 0.00 0.00 0.00 83 1002.0
20260505094156 11 190 0.0 3.2 0.00 0.00 0.00 85 1002.0
20260505093030 11 190 0.0 0.0 0.00 0.00 0.00 85 1001.6
20260505091855 11 190 0.0 0.0 0.00 0.00 0.00 84 1001.2
20260505091401 11 190 0.0 0.0 0.00 0.00 0.00 84 1001.2
20260505090900 11 190 0.0 0.0 0.00 0.00 0.00 84 1001.3
20260505090404 11 190 0.0 0.0 0.00 0.00 0.00 83 1001.3
20260505085904 11 190 0.0 0.0 0.00 0.00 0.00 83 1001.3
20260505085408 11 190 0.0 0.0 0.00 0.00 0.00 83 1001.3
20260505084912 11 190 0.0 0.0 0.00 0.00 0.00 83 1001.3
20260505084413 11 190 0.0 0.0 0.00 0.00 0.00 83 1001.3
20260505083856 11 190 0.0 0.0 0.00 0.00 0.00 82 1001.4
20260505082754 11 190 0.0 0.0 0.00 0.00 0.00 81 1001.3
20260505081640 11 190 0.0 0.0 0.00 0.00 0.00 81 1001.2
20260505081126 11 190 0.0 0.0 0.00 0.00 0.00 81 1001.2
20260505080612 11 190 0.0 0.0 0.00 0.00 0.00 82 1001.2
20260505080104 11 190 0.0 0.0 0.00 0.00 0.00 81 1001.2
20260505075559 11 190 0.0 0.0 0.00 0.00 0.00 81 1001.3
20260505075051 11 190 0.0 0.0 0.00 0.00 0.00 81 1001.3
20260505073929 12 190 0.0 0.0 0.00 0.00 0.00 80 1001.2
20260505073427 12 190 0.0 0.0 0.00 0.00 0.00 80 1001.3
20260505072922 12 190 0.0 0.0 0.00 0.00 0.00 79 1001.4
20260505071144 12 190 0.0 0.0 0.00 0.00 0.00 78 1001.2
20260505070627 12 190 0.0 0.0 0.00 0.00 0.00 78 1001.2
20260505070126 12 190 0.0 0.0 0.00 0.00 0.00 78 1001.1
20260505065633 12 190 0.0 0.0 0.00 0.00 0.00 77 1001.2
20260505065131 12 190 0.0 0.0 0.00 0.00 0.00 77 1001.2
20260505064621 12 190 0.0 0.0 0.00 0.00 0.00 77 1001.2
20260505064105 12 190 0.0 0.0 0.00 0.00 0.00 77 1001.2
20260505063608 13 190 0.0 0.0 0.00 0.00 0.00 76 1001.2
20260505063109 13 190 0.0 0.0 0.00 0.00 0.00 76 1001.2
20260505062603 13 190 0.0 3.2 0.00 0.00 0.00 77 1001.2
20260505062108 13 190 0.0 4.8 0.00 0.00 0.00 76 1001.2
20260505061553 12 190 0.0 0.0 0.00 0.00 0.00 76 1001.3
20260505061038 13 190 0.0 0.0 0.00 0.00 0.00 76 1001.2
20260505060542 13 190 0.0 0.0 0.00 0.00 0.00 76 1001.3
20260505055421 12 190 0.0 0.0 0.00 0.00 0.00 77 1001.2
20260505054908 12 190 0.0 0.0 0.00 0.00 0.00 78 1001.3
20260505054418 12 190 0.0 4.8 0.00 0.00 0.00 78 1001.4
20260505053247 12 175 0.0 0.0 0.00 0.00 0.00 77 1001.4
20260505052734 12 175 0.0 0.0 0.00 0.00 0.00 76 1001.4
20260505052243 12 175 0.0 0.0 0.00 0.00 0.00 75 1001.4
20260505051725 12 175 0.0 0.0 0.00 0.00 0.00 74 1001.4
20260505051214 12 175 0.0 0.0 0.00 0.00 0.00 74 1001.5
20260505050702 12 175 0.0 0.0 0.00 0.00 0.00 73 1001.5
20260505050145 12 175 0.0 0.0 0.00 0.00 0.00 73 1001.6
20260505040726 14 175 0.0 0.0 0.00 0.00 0.00 65 1001.7
20260505035628 15 175 0.0 0.0 0.00 0.00 0.00 63 1001.7
20260505035133 15 175 0.0 0.0 0.00 0.00 0.00 62 1001.7
20260505033336 15 175 0.0 0.0 0.00 0.00 0.00 60 1001.7
20260505031554 16 175 0.0 3.2 0.00 0.00 0.00 57 1001.7
20260505031046 16 175 0.0 0.0 0.00 0.00 0.00 57 1001.8
20260505025317 16 175 0.0 0.0 0.00 0.00 0.00 56 1001.9
20260505024207 15 175 0.0 0.0 0.00 0.00 0.00 56 1001.8
20260505023654 15 175 0.0 0.0 0.00 0.00 0.00 56 1001.8
20260505022522 15 175 0.0 0.0 0.00 0.00 0.00 55 1001.9
20260505022018 15 175 0.0 0.0 0.00 0.00 0.00 56 1001.9
20260505021515 15 175 0.0 0.0 0.00 0.00 0.00 56 1002.0
20260505021012 16 175 0.0 0.0 0.00 0.00 0.00 55 1001.9
20260505020515 16 175 0.0 0.0 0.00 0.00 0.00 55 1001.9
20260505020007 16 175 0.0 0.0 0.00 0.00 0.00 56 1001.9
20260505015454 16 175 0.0 0.0 0.00 0.00 0.00 54 1001.8
20260505014955 16 175 0.0 0.0 0.00 0.00 0.00 53 1001.8
20260505014503 17 175 0.0 0.0 0.00 0.00 0.00 53 1001.7
20260505013959 17 175 0.0 0.0 0.00 0.00 0.00 52 1001.7
20260505013448 17 175 0.0 0.0 0.00 0.00 0.00 51 1001.6
20260505012946 17 175 0.0 0.0 0.00 0.00 0.00 51 1001.7
20260505012431 17 175 0.0 0.0 0.00 0.00 0.00 48 1001.6
20260505011921 18 175 0.0 0.0 0.00 0.00 0.00 48 1001.5
20260505011404 18 175 0.0 0.0 0.00 0.00 0.00 46 1001.4
20260505010859 18 175 0.0 0.0 0.00 0.00 0.00 46 1001.3
20260505010408 18 175 0.0 0.0 0.00 0.00 0.00 45 1001.3
20260505005903 18 175 0.0 0.0 0.00 0.00 0.00 44 1001.3
20260505005345 19 175 0.0 0.0 0.00 0.00 0.00 44 1001.2
20260505004840 19 175 0.0 0.0 0.00 0.00 0.00 44 1001.2
20260505004347 19 175 0.0 0.0 0.00 0.00 0.00 44 1001.0
20260505003219 19 175 0.0 3.2 0.00 0.00 0.00 41 1001.0
20260505001425 20 174 0.0 0.0 0.00 0.00 0.00 41 1000.9
20260505000921 20 174 0.0 0.0 0.00 0.00 0.00 39 1000.8
20260505000416 20 174 0.0 4.8 0.00 0.00 0.00 39 1000.7
20260504235919 20 174 0.0 0.0 0.00 0.00 0.00 38 1000.6
20260504235419 20 172 0.0 12.9 0.00 0.00 0.00 38 1000.6
20260504234921 21 193 0.0 12.9 0.00 0.00 0.00 38 1000.5
20260504234417 21 184 0.0 12.9 0.00 0.00 0.00 37 1000.5
20260504233911 21 182 1.6 9.7 0.00 0.00 0.00 37 1000.4
20260504233358 21 153 3.2 9.7 0.00 0.00 0.00 38 1000.3
20260504232249 21 192 0.0 1.6 0.00 0.00 0.00 37 1000.1
20260504231757 21 185 0.0 0.0 0.00 0.00 0.00 37 1000.1
20260504231253 21 185 1.6 12.9 0.00 0.00 0.00 36 1000.1
20260504230742 21 220 1.6 12.9 0.00 0.00 0.00 36 1000.0
20260504225608 22 199 3.2 12.9 0.00 0.00 0.00 35 1000.0
20260504225054 22 196 1.6 14.5 0.00 0.00 0.00 35 1000.0
20260504224550 22 244 1.6 14.5 0.00 0.00 0.00 35 1000.0
20260504224055 22 171 3.2 14.5 0.00 0.00 0.00 35 1000.0
20260504223539 22 198 1.6 14.5 0.00 0.00 0.00 35 1000.1
20260504223034 22 246 0.0 0.0 0.00 0.00 0.00 36 1000.0
20260504222539 22 158 1.6 9.7 0.00 0.00 0.00 35 1000.0
20260504222021 22 221 1.6 12.9 0.00 0.00 0.00 35 1000.1
20260504221525 22 192 3.2 12.9 0.00 0.00 0.00 34 1000.1
20260504221034 22 163 3.2 14.5 0.00 0.00 0.00 34 1000.1
20260504220521 22 223 3.2 14.5 0.00 0.00 0.00 34 1000.2
20260504220012 22 181 3.2 14.5 0.00 0.00 0.00 34 1000.1
20260504215500 22 182 1.6 14.5 0.00 0.00 0.00 34 1000.3
20260504213737 22 153 1.6 12.9 0.00 0.00 0.00 35 1000.3
20260504213234 22 203 3.2 11.3 0.00 0.00 0.00 34 1000.4
20260504212718 23 198 1.6 19.3 0.00 0.00 0.00 33 1000.5
20260504212159 23 173 3.2 19.3 0.00 0.00 0.00 35 1000.5
20260504211646 22 155 4.8 20.9 0.00 0.00 0.00 34 1000.5
20260504211129 22 209 4.8 20.9 0.00 0.00 0.00 33 1000.5
20260504210019 22 319 6.4 20.9 0.00 0.00 0.00 33 1000.6
20260504205500 23 261 3.2 19.3 0.00 0.00 0.00 33 1000.5
20260504204954 23 260 4.8 14.5 0.00 0.00 0.00 34 1000.4
20260504204457 23 211 4.8 14.5 0.00 0.00 0.00 32 1000.4
20260504203958 23 202 3.2 17.7 0.00 0.00 0.00 32 1000.4
20260504202834 23 190 8.0 19.3 0.00 0.00 0.00 33 1000.5
20260504202321 23 161 6.4 19.3 0.00 0.00 0.00 32 1000.6
20260504201831 23 161 3.2 20.9 0.00 0.00 0.00 33 1000.6
20260504200658 22 161 4.8 20.9 0.00 0.00 0.00 33 1000.7
20260504200153 23 254 3.2 20.9 0.00 0.00 0.00 32 1000.7
20260504195647 23 148 4.8 16.1 0.00 0.00 0.00 32 1000.6